STARLINK-32939, 63149

Orbit data source: Space-Track

STARLINK-32939, 63149 is a payload satellite owned by SpaceX/Seattle (US) in LEO that was launched on Mon, 03 Mar 2025 UTC via an FALCON 9 launch vehicle from the Air Force Eastern Test Range (AFETR). Payload-class satellites include a variety of spacecraft equipped with specific instruments for various scientific and technological missions. These include communications satellites like Starlink; space stations such as the ISS; scientific satellites like the Hubble; Earth observation satellites from companies like Planet Labs, Umbra, and HawkEye 360; GPS; miniature CubeSats for education and research; and military/defense satellites.

Loading next visibility...
Identifier
63149, 2025-043T
Orbit
LEO
Last TLE update
11 hours ago
Origin
Manufacturer
SpaceX/Seattle
Mission
Operational Commercial Communications
Bus & Motor
STARLINK V2M, Unknown motor
Mass
730 kg wet, ~700 kg dry
Launch date (UTC)
2025-03-03 (2 months ago)
Launch vehicle
FALCON 9
Launch site
Air Force Eastern Test Range (AFETR)
Object type
Payload
Rocket body
Debris
Shape & HBR
Box + 2 Pan, 29 m
Radar Cross Section
33.884 m², Large (>1 m²)

Expand to show TLE details & history

TLE from 11 hours ago
0 STARLINK-32939
1 63149U 25043T   25128.81351406  .00000869  00000-0  28073-4 0  9990
2 63149  43.0022 302.5044 0001379 279.6450  80.4250 15.40700357 10683
Epoch: 2025-05-08T19:31Z
Definitive object data (Epoch: 2025-05-08T19:31:27.614Z)
Latitude
-0.00008°
Longitude
142.76063°
Altitude
443.659 km
Speed
7.648 km/s
True Right ascension
20h 10m 01s
True Declination
0° 00' 00"
Sunlit
Object was in daylight at TLE epoch
Visualization TLE readout
Latitude
41.9455°
Longitude
-146.54064°
Altitude
447.767 km
Speed
7.649 km/s
Apparent Right ascension
01h 52m 13s
Apparent Declination
2° 47' 23"
Sunlit
Object is in daylight
Visualization observer readout
Local Sidereal Time
14:53:56
Azimuth
22.079° NNE
Elevation
-45.01°
Doppler factor
1
Orbital elements
Apogee altitude
446.938 km
Perigee altitude
445.056 km
Semi-major axis
6,824.134 km
Eccentricity
0.0001379
Inclination
43.0022°
RAAN
302.5044°
Arg. of periapsis
279.645°
True anomaly
80.44058°
Mean anomaly
80.425°
Eccentric anomaly
80.43279°
Mean motion
3.8501 °/min
BSTAR
0.000028073
Orbital period
93.5 mins
Loading maneuver chart data...
Loading SW <> Apogee altitude chart data...
Loading historical data...
Loading historical data...
Loading historical data...
Loading historical data...
Loading historical data...
Loading historical data...
Loading historical data...

STARLINK-32939 Visibility forecast

Observer location: undefined°, undefined°

Span
Click to sort rows by Start time (UTC) header in descending order
Start Az.
Max El. time (UTC)
Max El. Az.
Max El.
End time (UTC)
End Az.
5 mins2025-05-09 14:23:03.772Z201.909° SSW2025-05-09 14:26:03.772Z139.845° SSE22.395°2025-05-09 14:28:03.772Z98.044° ESE
5 mins2025-05-09 16:02:03.772Z258.128° W2025-05-09 16:04:03.772Z53.691° ENE42.416°2025-05-09 16:07:03.772Z71.148° E
5 mins2025-05-09 17:40:03.772Z295.154° NW2025-05-09 17:42:03.772Z10.481° NNE36.913°2025-05-09 17:45:03.772Z76.181° E
5 mins2025-05-09 19:18:03.772Z288.811° WNW2025-05-09 19:20:03.772Z304.994° NW44.827°2025-05-09 19:23:03.772Z108.136° ESE
|